{"data":{"norad_id":43943,"epoch":"2026-09-20T04:27:47.516832Z","epoch_age_seconds":84937,"freshness":"FRESH","line1":"1 43943U 19005B   26263.18596663  .00002946  00000+0  13521-3 0  9996","line2":"2 43943  97.4730 357.3800 0003634 109.1711 250.9918 15.21208430423589","mean_motion":15.2120843,"eccentricity":0.0003634,"inclination_deg":97.473,"raan_deg":357.38,"arg_perigee_deg":109.1711,"mean_anomaly_deg":250.9918,"bstar":0.00013521,"rev_number":42358,"period_min":94.661584277442,"perigee_km":499.69411813586,"apogee_km":504.69474301961,"semimajor_km":6880.3314305777,"source":"CELESTRAK","updated_at":"2026-09-20T09:00:14.447323Z"}}